TimeCDT,TemperatureF,Dew PointF,Humidity,Sea Level PressureIn,VisibilityMPH,Wind Direction,Wind SpeedMPH,Gust SpeedMPH,PrecipitationIn,Events,Conditions,WindDirDegrees,DateUTC
12:25 AM,48.2,48.2,100,30.04,2.0,WNW,6.9,-,N/A,,Overcast,300,2013-05-05 05:25:00
12:51 AM,48.2,46.4,93,30.04,4.0,NW,8.1,-,N/A,,Overcast,310,2013-05-05 05:51:00
12:53 AM,48.9,46.9,93,30.05,4.0,NW,6.9,-,N/A,,Overcast,310,2013-05-05 05:53:00
1:53 AM,48.0,46.9,96,30.04,2.0,WNW,4.6,-,N/A,,Overcast,300,2013-05-05 06:53:00
2:24 AM,48.2,46.4,93,30.03,1.5,WNW,4.6,-,N/A,,Overcast,300,2013-05-05 07:24:00
2:48 AM,48.2,46.4,93,30.03,2.5,NNW,8.1,-,N/A,,Overcast,340,2013-05-05 07:48:00
2:53 AM,46.9,46.0,97,30.03,1.2,NNW,8.1,-,N/A,,Overcast,330,2013-05-05 07:53:00
3:01 AM,46.4,46.4,100,30.02,0.5,NW,8.1,-,N/A,Fog,Fog,310,2013-05-05 08:01:00
3:10 AM,46.4,46.4,100,30.02,0.2,NW,8.1,-,N/A,Fog,Fog,310,2013-05-05 08:10:00
3:32 AM,46.4,46.4,100,30.03,0.2,Calm,Calm,-,N/A,Fog,Fog,0,2013-05-05 08:32:00
3:53 AM,46.9,46.0,97,30.04,0.2,North,8.1,-,N/A,Fog,Fog,350,2013-05-05 08:53:00
4:53 AM,46.0,45.0,96,30.03,0.2,NW,6.9,-,N/A,Fog,Fog,310,2013-05-05 09:53:00
5:53 AM,46.0,45.0,96,30.05,0.2,NW,6.9,-,N/A,Fog,Fog,320,2013-05-05 10:53:00
6:53 AM,46.0,45.0,96,30.06,0.2,NW,8.1,-,N/A,Fog,Fog,320,2013-05-05 11:53:00
7:53 AM,46.9,46.0,97,30.07,0.2,WNW,5.8,-,N/A,Fog,Fog,300,2013-05-05 12:53:00
8:21 AM,48.2,46.4,93,30.07,0.2,NW,6.9,-,0.01,Fog,Fog,310,2013-05-05 13:21:00
8:53 AM,48.0,48.0,100,30.08,0.2,NNW,9.2,-,0.01,Fog,Fog,330,2013-05-05 13:53:00
9:53 AM,50.0,50.0,100,30.08,0.2,NW,8.1,-,N/A,Fog,Fog,310,2013-05-05 14:53:00
10:05 AM,50.0,50.0,100,30.07,0.5,WNW,9.2,-,N/A,Fog,Fog,290,2013-05-05 15:05:00
10:37 AM,51.8,51.8,100,30.07,1.2,NW,10.4,-,N/A,,Overcast,310,2013-05-05 15:37:00
10:51 AM,51.8,51.8,100,30.07,2.5,NW,11.5,-,N/A,,Overcast,320,2013-05-05 15:51:00
10:53 AM,52.0,51.1,97,30.08,2.5,NW,10.4,-,N/A,,Overcast,320,2013-05-05 15:53:00
11:02 AM,51.8,51.8,100,30.07,3.0,NNW,8.1,-,N/A,,Overcast,330,2013-05-05 16:02:00
11:53 AM,53.1,52.0,96,30.08,6.0,WNW,9.2,-,N/A,,Overcast,300,2013-05-05 16:53:00
12:25 PM,57.2,53.6,88,30.07,9.0,NNW,11.5,-,N/A,,Overcast,330,2013-05-05 17:25:00
12:53 PM,57.0,53.1,87,30.06,9.0,NW,11.5,-,N/A,,Overcast,320,2013-05-05 17:53:00
1:53 PM,57.0,53.1,87,30.05,10.0,NNW,11.5,-,N/A,,Overcast,340,2013-05-05 18:53:00
2:43 PM,62.6,55.4,77,30.03,10.0,NW,17.3,-,N/A,,Overcast,320,2013-05-05 19:43:00
2:53 PM,60.1,54.0,80,30.03,10.0,NW,16.1,-,N/A,,Overcast,320,2013-05-05 19:53:00
3:27 PM,62.6,55.4,77,30.01,10.0,NNW,13.8,-,N/A,,Mostly Cloudy,330,2013-05-05 20:27:00
3:53 PM,62.1,55.9,80,30.01,10.0,NW,15.0,-,N/A,,Scattered Clouds,320,2013-05-05 20:53:00
4:53 PM,64.9,55.9,73,30.00,10.0,NW,13.8,-,N/A,,Partly Cloudy,310,2013-05-05 21:53:00
5:53 PM,64.9,57.0,75,30.00,10.0,NW,10.4,-,N/A,,Mostly Cloudy,310,2013-05-05 22:53:00
6:53 PM,64.0,54.0,70,29.99,10.0,NNW,11.5,-,N/A,,Clear,330,2013-05-05 23:53:00
7:53 PM,61.0,55.9,83,30.00,9.0,NW,10.4,-,N/A,,Clear,310,2013-05-06 00:53:00
8:53 PM,60.1,55.9,86,30.01,9.0,NW,15.0,-,N/A,,Clear,310,2013-05-06 01:53:00
9:53 PM,55.9,53.1,90,30.02,7.0,NW,13.8,-,N/A,,Clear,320,2013-05-06 02:53:00
10:53 PM,54.0,51.1,90,30.02,6.0,NW,12.7,-,N/A,,Clear,310,2013-05-06 03:53:00
11:53 PM,52.0,50.0,93,30.02,6.0,NW,12.7,-,N/A,,Clear,310,2013-05-06 04:53:00